EW5836 Weather Reports


Display with metric or nautical units.
time (UTC)temp
F
wind
direction
speed
MPH
gust
MPH
rain 1hr
in
rain 24hr
in
rain mn
in
humidity
%
barometer
mb
20260509004035 55 335 0.0 0.0 0.00 0.08 0.00 86 1017.8
20260509003540 55 335 0.0 0.0 0.00 0.08 0.00 86 1017.8
20260509003101 55 335 0.0 0.0 0.00 0.08 0.00 85 1017.9
20260509002544 55 335 0.0 0.0 0.00 0.08 0.00 83 1017.9
20260509002038 55 335 0.0 0.0 0.00 0.08 0.00 84 1017.9
20260509001534 55 335 0.0 0.0 0.00 0.08 0.00 83 1017.8
20260509001037 55 335 0.0 0.0 0.00 0.08 0.00 82 1017.8
20260509000541 56 335 0.0 0.0 0.00 0.08 0.00 81 1017.9
20260509000034 56 335 0.0 0.0 0.00 0.08 0.00 80 1017.8
20260508235538 56 335 0.0 0.0 0.00 0.08 0.00 80 1017.8
20260508235058 56 335 0.0 0.0 0.00 0.08 0.00 80 1017.9
20260508234534 56 335 0.0 0.0 0.00 0.08 0.00 81 1017.9
20260508234044 56 335 0.0 0.0 0.00 0.08 0.00 80 1018.0
20260508233548 56 335 0.0 0.0 0.00 0.08 0.00 81 1017.9
20260508233106 55 335 0.0 0.0 0.00 0.08 0.00 82 1017.9
20260508232549 55 335 0.0 4.0 0.00 0.08 0.00 82 1018.0
20260508232036 55 335 1.0 4.0 0.00 0.08 0.00 84 1018.0
20260508231541 54 337 1.0 4.0 0.00 0.08 0.00 85 1018.0
20260508231052 54 337 0.0 0.0 0.00 0.08 0.00 84 1018.0
20260508230530 54 337 0.0 0.0 0.00 0.08 0.00 84 1018.0
20260508230040 54 337 0.0 0.0 0.00 0.08 0.00 85 1018.0
20260508225544 54 337 0.0 0.0 0.00 0.08 0.00 84 1017.9
20260508225058 55 337 0.0 0.0 0.00 0.08 0.00 84 1018.0
20260508224533 55 337 0.0 0.0 0.00 0.08 0.00 84 1017.9
20260508224043 55 337 0.0 0.0 0.00 0.08 0.00 85 1017.9
20260508223544 54 337 0.0 0.0 0.00 0.08 0.00 85 1017.8
20260508223034 55 337 0.0 0.0 0.00 0.08 0.00 85 1017.8
20260508222538 55 337 0.0 1.0 0.00 0.08 0.00 85 1017.8
20260508222048 55 337 0.0 2.0 0.00 0.08 0.00 86 1017.8
20260508221548 54 337 0.0 4.0 0.00 0.08 0.00 87 1017.7
20260508221040 54 339 1.0 4.0 0.00 0.08 0.00 87 1017.7
20260508220544 54 346 0.0 2.0 0.00 0.08 0.00 87 1017.7
20260508220054 54 346 0.0 2.0 0.00 0.08 0.02 88 1017.7
20260508215545 54 346 0.0 0.0 0.00 0.08 0.02 88 1017.7
20260508215036 55 347 0.0 0.0 0.00 0.08 0.02 87 1017.7
20260508214540 55 347 0.0 0.0 0.00 0.08 0.02 86 1017.7
20260508214033 56 346 0.0 0.0 0.00 0.08 0.02 86 1017.6
20260508213553 56 347 0.0 0.0 0.00 0.08 0.02 85 1017.6
20260508125041 60 323 0.0 0.0 0.04 0.08 0.02 91 1017.4
20260508124547 60 323 0.0 0.0 0.08 0.08 0.02 90 1017.4
20260508124058 60 323 0.0 1.0 0.08 0.08 0.02 90 1017.4
20260508123540 59 323 0.0 4.0 0.08 0.08 0.02 89 1017.4
20260508123046 59 324 1.0 4.0 0.08 0.08 0.02 90 1017.4
20260508122548 59 298 0.0 1.0 0.08 0.08 0.02 91 1017.4
20260508122040 60 287 0.0 1.0 0.08 0.08 0.02 91 1017.4
20260508121544 60 297 0.0 3.0 0.08 0.08 0.02 91 1017.4
20260508121055 60 237 0.0 3.0 0.08 0.08 0.02 91 1017.4
20260508120533 59 317 0.0 3.0 0.04 0.04 0.01 90 1017.5
20260508120042 59 317 0.0 3.0 0.04 0.04 0.01 90 1017.5
20260508115547 60 253 0.0 3.0 0.04 0.04 0.01 92 1017.6
20260508115040 60 248 0.0 4.0 0.04 0.04 0.01 91 1017.7
20260508114545 60 247 0.0 4.0 0.00 0.00 0.00 91 1017.7
20260508114035 60 234 0.0 3.0 0.00 0.00 0.00 90 1017.7
20260508113538 60 237 0.0 3.0 0.00 0.00 0.00 89 1017.7
20260508113100 60 249 1.0 3.0 0.00 0.00 0.00 88 1017.8
20260508112604 60 297 0.0 4.0 0.00 0.00 0.00 87 1017.7
20260508112032 60 241 2.0 4.0 0.00 0.00 0.00 87 1017.8
20260508111532 60 236 1.0 3.0 0.00 0.00 0.00 86 1017.9
20260508111044 61 274 0.0 3.0 0.00 0.00 0.00 85 1018.0
20260508110549 61 266 0.0 3.0 0.00 0.00 0.00 83 1018.0
20260508110105 61 231 0.0 2.0 0.00 0.00 0.00 83 1018.0
20260508105548 62 202 0.0 4.0 0.00 0.00 0.00 82 1017.9
20260508105045 62 243 1.0 4.0 0.00 0.00 0.00 82 1017.9
20260508104540 62 336 0.0 0.0 0.00 0.00 0.00 82 1017.9
20260508104053 62 336 0.0 0.0 0.00 0.00 0.00 82 1018.0
20260508103537 62 336 0.0 0.0 0.00 0.00 0.00 81 1017.9
20260508103040 62 336 0.0 0.0 0.00 0.00 0.00 82 1017.9
20260508102542 62 339 0.0 0.0 0.00 0.00 0.00 81 1017.9
20260508102038 62 338 0.0 0.0 0.00 0.00 0.00 81 1017.9
20260508101544 62 338 0.0 0.0 0.00 0.00 0.00 82 1017.8
20260508101055 62 339 0.0 0.0 0.00 0.00 0.00 81 1017.8
20260508100533 62 339 0.0 0.0 0.00 0.00 0.00 81 1017.8
20260508100043 62 339 0.0 0.0 0.00 0.00 0.00 81 1017.8
20260508095542 62 339 0.0 0.0 0.00 0.00 0.00 81 1017.8
20260508095036 62 339 0.0 0.0 0.00 0.00 0.00 81 1017.7
20260508094537 62 339 0.0 0.0 0.00 0.00 0.00 80 1017.8
20260508094056 62 339 0.0 0.0 0.00 0.00 0.00 81 1017.7
20260508093531 62 339 0.0 0.0 0.00 0.00 0.00 80 1017.7
20260508093040 62 339 0.0 0.0 0.00 0.00 0.00 80 1017.6
20260508092603 62 339 0.0 0.0 0.00 0.00 0.00 79 1017.7
20260508092032 61 339 0.0 0.0 0.00 0.00 0.00 79 1017.7
20260508091551 61 339 0.0 0.0 0.00 0.00 0.00 79 1017.7
20260508091040 61 339 0.0 0.0 0.00 0.00 0.00 79 1017.6
20260508090603 61 339 0.0 0.0 0.00 0.00 0.00 79 1017.6
20260508090033 61 339 0.0 0.0 0.00 0.00 0.00 80 1017.5
20260508085535 61 339 0.0 0.0 0.00 0.00 0.00 82 1017.5
20260508085041 61 339 0.0 0.0 0.00 0.00 0.00 83 1017.5
20260508084605 61 339 0.0 0.0 0.00 0.00 0.00 82 1017.5
20260508084037 61 339 0.0 0.0 0.00 0.00 0.00 83 1017.5
20260508083535 61 339 0.0 0.0 0.00 0.00 0.00 84 1017.5
20260508083045 61 339 0.0 0.0 0.00 0.00 0.00 84 1017.5
20260508082548 61 339 0.0 0.0 0.00 0.00 0.00 84 1017.4
20260508082052 60 339 0.0 0.0 0.00 0.00 0.00 83 1017.4
20260508081536 60 339 0.0 0.0 0.00 0.00 0.00 82 1017.4
20260508081040 60 339 0.0 0.0 0.00 0.00 0.00 83 1017.3
20260508080536 60 339 0.0 0.0 0.00 0.00 0.00 83 1017.4
20260508080043 60 339 0.0 0.0 0.00 0.00 0.00 84 1017.4
20260508075556 59 339 0.0 0.0 0.00 0.00 0.00 84 1017.4
20260508075039 59 339 0.0 0.0 0.00 0.00 0.00 84 1017.3
20260508074538 59 339 0.0 0.0 0.00 0.00 0.00 83 1017.3
20260508074037 59 339 0.0 0.0 0.00 0.00 0.00 83 1017.2
20260508073541 59 344 0.0 0.0 0.00 0.00 0.00 84 1017.2
20260508073042 59 108 0.0 0.0 0.00 0.00 0.00 83 1017.3
20260508072545 59 108 0.0 0.0 0.00 0.00 0.00 83 1017.2
20260508072048 59 64 0.0 0.0 0.00 0.00 0.00 83 1017.1
20260508071548 59 73 0.0 4.0 0.00 0.00 0.00 84 1017.1
20260508071102 59 75 0.0 4.0 0.00 0.00 0.00 84 1017.0
20260508070547 58 315 0.0 0.0 0.00 0.00 0.00 85 1017.0
20260508070036 58 315 0.0 0.0 0.00 0.00 0.00 86 1017.0
20260508065539 58 315 0.0 0.0 0.00 0.00 0.00 87 1017.0
20260508065035 58 315 0.0 0.0 0.00 0.00 0.00 87 1017.0
20260508064555 58 315 0.0 0.0 0.00 0.00 0.00 87 1016.9
20260508064038 58 315 0.0 0.0 0.00 0.00 0.00 87 1016.9
20260508063542 58 315 0.0 0.0 0.00 0.00 0.00 87 1016.8
20260508063035 58 315 0.0 0.0 0.00 0.00 0.00 87 1016.8
20260508062539 58 315 0.0 0.0 0.00 0.00 0.00 87 1016.7
20260508062030 58 315 0.0 0.0 0.00 0.00 0.00 87 1016.8
20260508061532 58 315 0.0 0.0 0.00 0.00 0.00 86 1016.8
20260508061039 58 316 0.0 0.0 0.00 0.00 0.00 86 1016.6
20260508060544 57 316 0.0 0.0 0.00 0.00 0.00 84 1016.6
20260508060043 57 315 0.0 0.0 0.00 0.00 0.00 85 1016.6
20260508055539 57 315 0.0 0.0 0.00 0.00 0.00 87 1016.5
20260508055059 57 315 0.0 0.0 0.00 0.00 0.00 87 1016.4
20260508054533 57 316 0.0 0.0 0.00 0.00 0.00 86 1016.3
20260508054109 57 315 0.0 0.0 0.00 0.00 0.00 86 1016.3
20260508053550 57 316 0.0 0.0 0.00 0.00 0.00 85 1016.2
20260508053048 57 315 0.0 0.0 0.00 0.00 0.00 85 1016.1
20260508052550 57 315 0.0 0.0 0.00 0.00 0.00 85 1016.1
20260508052102 57 316 0.0 0.0 0.00 0.00 0.00 85 1016.2
20260508051605 56 315 0.0 0.0 0.00 0.00 0.00 85 1016.1
20260508051054 57 315 0.0 0.0 0.00 0.00 0.00 85 1016.1
20260508050535 57 314 0.0 0.0 0.00 0.00 0.00 84 1016.0
20260508050043 57 314 0.0 0.0 0.00 0.00 0.00 84 1015.9
20260508045603 58 314 0.0 2.0 0.00 0.00 0.00 82 1015.8
20260508045057 58 312 0.0 2.0 0.00 0.00 0.00 81 1015.8
20260508044532 58 310 0.0 2.0 0.00 0.00 0.00 80 1015.6
20260508044107 58 311 0.0 2.0 0.00 0.00 0.00 80 1015.6
20260508043550 58 310 0.0 3.0 0.00 0.00 0.00 80 1015.5
20260508043044 58 310 0.0 3.0 0.00 0.00 0.00 80 1015.4
20260508042608 58 311 0.0 4.0 0.00 0.00 0.00 80 1015.4
20260508042036 57 318 1.0 5.0 0.00 0.00 0.00 82 1015.4
20260508041538 57 318 1.0 5.0 0.00 0.00 0.00 84 1015.3
20260508041057 57 319 2.0 3.0 0.00 0.00 0.00 85 1015.4
20260508040532 57 320 0.0 4.0 0.00 0.00 0.00 85 1015.4
20260508040045 56 320 2.0 4.0 0.00 0.00 0.00 85 1015.3
20260508035549 56 324 0.0 0.0 0.00 0.00 0.00 85 1015.1
20260508035041 56 324 0.0 0.0 0.00 0.00 0.00 85 1015.1
20260508034544 56 324 0.0 0.0 0.00 0.00 0.00 85 1015.1
20260508034031 56 324 0.0 0.0 0.00 0.00 0.00 85 1015.0
20260508033537 56 324 0.0 0.0 0.00 0.00 0.00 85 1015.0
20260508033050 56 324 0.0 0.0 0.00 0.00 0.00 84 1014.9
20260508032552 57 324 0.0 0.0 0.00 0.00 0.00 84 1014.9
20260508032040 57 324 0.0 0.0 0.00 0.00 0.00 84 1014.9
20260508031542 57 324 0.0 0.0 0.00 0.00 0.00 83 1014.9
20260508031036 57 324 0.0 0.0 0.00 0.00 0.00 83 1014.8
20260508030601 57 324 0.0 0.0 0.00 0.00 0.00 84 1014.8
20260508030046 57 324 0.0 0.0 0.00 0.00 0.00 84 1014.8
20260508025541 57 324 0.0 0.0 0.00 0.00 0.00 85 1014.8
20260508025032 56 324 0.0 0.0 0.00 0.00 0.00 85 1014.8
20260508024538 56 324 0.0 0.0 0.00 0.00 0.00 85 1014.8
20260508024035 56 324 0.0 0.0 0.00 0.00 0.00 84 1014.7
20260508023540 56 324 0.0 0.0 0.00 0.00 0.00 84 1014.7
20260508023039 56 324 0.0 0.0 0.00 0.00 0.00 84 1014.8
20260508022603 56 324 0.0 0.0 0.00 0.00 0.00 84 1014.7
20260508022059 56 324 0.0 0.0 0.00 0.00 0.00 84 1014.7
20260508021542 56 324 0.0 0.0 0.00 0.00 0.00 85 1014.8
20260508021034 56 324 0.0 0.0 0.00 0.00 0.00 84 1014.8
20260508020539 56 324 0.0 0.0 0.00 0.00 0.00 83 1014.7
20260508020058 57 324 0.0 0.0 0.00 0.00 0.00 84 1014.6
20260508015535 57 324 0.0 0.0 0.00 0.00 0.00 83 1014.7
20260508015044 57 324 0.0 0.0 0.00 0.00 0.00 83 1014.7
20260508014549 57 324 0.0 0.0 0.00 0.00 0.00 83 1014.6
20260508014101 57 324 0.0 0.0 0.00 0.00 0.00 83 1014.6
20260508013546 57 324 0.0 0.0 0.00 0.00 0.00 82 1014.7
20260508013034 57 324 0.0 0.0 0.00 0.00 0.00 82 1014.7
20260508012559 57 324 0.0 0.0 0.00 0.00 0.00 83 1014.7
20260508012030 57 324 0.0 0.0 0.00 0.00 0.00 82 1014.7
20260508011555 57 324 0.0 0.0 0.00 0.00 0.00 82 1014.7
20260508011044 57 324 0.0 0.0 0.00 0.00 0.00 83 1014.8
20260508010547 57 324 0.0 0.0 0.00 0.00 0.00 82 1014.8
20260508010040 57 324 0.0 0.0 0.00 0.00 0.00 83 1014.9
20260508005544 57 324 0.0 0.0 0.00 0.00 0.00 83 1014.8
20260508005101 57 324 0.0 0.0 0.00 0.00 0.00 83 1014.7
20260508004545 57 324 0.0 0.0 0.00 0.00 0.00 83 1014.8